| time (UTC) | temp C | wind direction | speed KPH | gust KPH | rain 1hr cm | rain 24hr cm | rain mn cm | humidity % | barometer mb |
| 20260506093059 | 4 | 271 | 0.0 | 0.0 | 0.00 | 0.79 | 0.13 | 92 | 1018.5 |
| 20260506091553 | 4 | 263 | 0.0 | 0.0 | 0.00 | 0.79 | 0.13 | 92 | 1018.4 |
| 20260506090104 | 4 | 261 | 0.0 | 0.0 | 0.00 | 0.79 | 0.13 | 92 | 1018.3 |
| 20260506084606 | 4 | 270 | 0.0 | 1.6 | 0.00 | 0.79 | 0.13 | 92 | 1018.4 |
| 20260506083053 | 4 | 255 | 0.0 | 3.2 | 0.03 | 0.79 | 0.13 | 92 | 1018.3 |
| 20260506081549 | 4 | 227 | 1.6 | 6.4 | 0.03 | 0.79 | 0.13 | 92 | 1018.2 |
| 20260506073045 | 4 | 138 | 3.2 | 6.4 | 0.03 | 0.76 | 0.10 | 91 | 1018.0 |
| 20260506071541 | 4 | 124 | 0.0 | 0.0 | 0.03 | 0.76 | 0.10 | 91 | 1018.2 |
| 20260506061537 | 4 | 36 | 0.0 | 1.6 | 0.05 | 0.71 | 0.08 | 91 | 1018.2 |
| 20260506044526 | 5 | 302 | 0.0 | 0.0 | 0.05 | 0.64 | 0.64 | 89 | 1017.3 |
| 20260506043026 | 5 | 302 | 0.0 | 0.0 | 0.08 | 0.64 | 0.64 | 89 | 1017.2 |
| 20260506041536 | 5 | 295 | 0.0 | 3.2 | 0.10 | 0.61 | 0.61 | 87 | 1017.3 |
| 20260506040023 | 5 | 295 | 1.6 | 6.4 | 0.13 | 0.61 | 0.61 | 87 | 1017.2 |
| 20260506034532 | 5 | 300 | 0.0 | 1.6 | 0.13 | 0.58 | 0.58 | 88 | 1017.0 |
| 20260506033019 | 5 | 255 | 0.0 | 0.0 | 0.13 | 0.56 | 0.56 | 88 | 1017.0 |
| 20260506031517 | 5 | 252 | 0.0 | 1.6 | 0.08 | 0.51 | 0.51 | 87 | 1016.6 |
| 20260506030016 | 5 | 240 | 0.0 | 0.0 | 0.03 | 0.46 | 0.46 | 86 | 1016.8 |
| 20260506024515 | 5 | 236 | 0.0 | 0.0 | 0.03 | 0.46 | 0.46 | 87 | 1016.5 |
| 20260506023013 | 5 | 242 | 0.0 | 0.0 | 0.03 | 0.43 | 0.43 | 86 | 1016.2 |
| 20260506021511 | 5 | 243 | 0.0 | 1.6 | 0.03 | 0.43 | 0.43 | 86 | 1016.1 |
| 20260506020009 | 5 | 276 | 0.0 | 0.0 | 0.03 | 0.43 | 0.43 | 86 | 1015.4 |
| 20260506014507 | 6 | 288 | 0.0 | 0.0 | 0.03 | 0.43 | 0.43 | 87 | 1015.3 |
| 20260506013016 | 6 | 308 | 0.0 | 3.2 | 0.00 | 0.41 | 0.41 | 84 | 1015.1 |
| 20260506011513 | 6 | 313 | 1.6 | 3.2 | 0.00 | 0.41 | 0.41 | 83 | 1014.8 |
| 20260506010003 | 6 | 314 | 1.6 | 4.8 | 0.00 | 0.41 | 0.41 | 83 | 1014.6 |
| 20260506004604 | 6 | 314 | 3.2 | 8.0 | 0.00 | 0.41 | 0.41 | 82 | 1014.6 |
| 20260506003057 | 6 | 315 | 8.0 | 17.7 | 0.00 | 0.41 | 0.41 | 80 | 1014.2 |
| 20260506001558 | 7 | 1 | 4.8 | 11.3 | 0.00 | 0.41 | 0.41 | 79 | 1014.0 |
| 20260506000100 | 7 | 3 | 3.2 | 4.8 | 0.00 | 0.41 | 0.41 | 82 | 1014.0 |
| 20260505234554 | 7 | 2 | 0.0 | 0.0 | 0.00 | 0.41 | 0.41 | 81 | 1014.0 |
| 20260505233056 | 7 | 8 | 1.6 | 6.4 | 0.00 | 0.41 | 0.41 | 82 | 1013.7 |
| 20260505231553 | 7 | 15 | 1.6 | 6.4 | 0.03 | 0.41 | 0.41 | 83 | 1013.8 |
| 20260505230118 | 7 | 29 | 3.2 | 8.0 | 0.03 | 0.41 | 0.41 | 83 | 1013.4 |
| 20260505224551 | 7 | 21 | 4.8 | 9.7 | 0.03 | 0.41 | 0.41 | 83 | 1013.5 |
| 20260505223052 | 7 | 21 | 3.2 | 8.0 | 0.05 | 0.41 | 0.41 | 82 | 1013.5 |
| 20260505221556 | 7 | 24 | 3.2 | 8.0 | 0.03 | 0.38 | 0.38 | 81 | 1013.5 |
| 20260505220055 | 7 | 23 | 3.2 | 8.0 | 0.03 | 0.38 | 0.38 | 81 | 1013.5 |
| 20260505214549 | 7 | 18 | 3.2 | 9.7 | 0.03 | 0.38 | 0.38 | 82 | 1013.4 |
| 20260505213048 | 7 | 355 | 8.0 | 11.3 | 0.00 | 0.36 | 0.36 | 80 | 1013.4 |
| 20260505211558 | 7 | 11 | 8.0 | 12.9 | 0.00 | 0.36 | 0.36 | 82 | 1013.3 |
| 20260505210046 | 7 | 359 | 8.0 | 16.1 | 0.00 | 0.36 | 0.36 | 82 | 1013.3 |
| 20260505204546 | 7 | 17 | 9.7 | 14.5 | 0.00 | 0.36 | 0.36 | 80 | 1013.5 |
| 20260505203046 | 7 | 320 | 6.4 | 14.5 | 0.00 | 0.36 | 0.36 | 83 | 1013.6 |
| 20260505201549 | 7 | 340 | 8.0 | 14.5 | 0.00 | 0.36 | 0.36 | 84 | 1013.7 |
| 20260505200048 | 7 | 346 | 8.0 | 12.9 | 0.00 | 0.36 | 0.36 | 83 | 1013.7 |
| 20260505194545 | 6 | 20 | 8.0 | 12.9 | 0.03 | 0.36 | 0.36 | 83 | 1014.0 |
| 20260505193058 | 7 | 349 | 8.0 | 12.9 | 0.05 | 0.36 | 0.36 | 83 | 1013.8 |
| 20260505191544 | 7 | 333 | 8.0 | 12.9 | 0.05 | 0.36 | 0.36 | 83 | 1013.9 |
| 20260505190045 | 6 | 348 | 9.7 | 16.1 | 0.05 | 0.33 | 0.33 | 84 | 1013.9 |
| 20260505184542 | 6 | 26 | 9.7 | 16.1 | 0.08 | 0.33 | 0.33 | 85 | 1013.9 |
| 20260505183043 | 7 | 1 | 4.8 | 9.7 | 0.10 | 0.30 | 0.30 | 84 | 1014.0 |
| 20260505181546 | 6 | 15 | 8.0 | 14.5 | 0.10 | 0.28 | 0.28 | 84 | 1013.9 |
| 20260505180038 | 7 | 6 | 9.7 | 14.5 | 0.13 | 0.28 | 0.28 | 86 | 1013.8 |
| 20260505174538 | 6 | 16 | 8.0 | 12.9 | 0.15 | 0.25 | 0.25 | 86 | 1013.9 |
| 20260505173037 | 6 | 356 | 4.8 | 11.3 | 0.13 | 0.20 | 0.20 | 87 | 1014.0 |
| 20260505171535 | 6 | 333 | 6.4 | 11.3 | 0.13 | 0.18 | 0.18 | 84 | 1013.9 |
| 20260505170034 | 7 | 309 | 6.4 | 14.5 | 0.10 | 0.15 | 0.15 | 83 | 1014.0 |
| 20260505164531 | 7 | 309 | 8.0 | 14.5 | 0.05 | 0.10 | 0.10 | 84 | 1013.6 |
| 20260505163030 | 7 | 318 | 11.3 | 17.7 | 0.03 | 0.08 | 0.08 | 83 | 1013.3 |
| 20260505161538 | 7 | 327 | 9.7 | 16.1 | 0.00 | 0.05 | 0.05 | 83 | 1013.3 |
| 20260505153021 | 7 | 284 | 6.4 | 9.7 | 0.00 | 0.05 | 0.05 | 81 | 1013.0 |
| 20260505151519 | 7 | 275 | 3.2 | 9.7 | 0.00 | 0.05 | 0.05 | 82 | 1013.0 |
| 20260505124601 | 7 | 293 | 6.4 | 14.5 | 0.00 | 0.00 | 0.00 | 74 | 1011.2 |
| 20260505123102 | 7 | 294 | 8.0 | 16.1 | 0.00 | 0.00 | 0.00 | 72 | 1010.8 |
| 20260505121556 | 7 | 302 | 8.0 | 17.7 | 0.00 | 0.00 | 0.00 | 73 | 1010.6 |
| 20260505120059 | 7 | 297 | 12.9 | 19.3 | 0.00 | 0.00 | 0.00 | 68 | 1010.4 |
| 20260505114551 | 7 | 295 | 11.3 | 19.3 | 0.00 | 0.00 | 0.00 | 68 | 1010.4 |
| 20260505113053 | 7 | 300 | 9.7 | 14.5 | 0.00 | 0.00 | 0.00 | 68 | 1010.1 |
| 20260505111549 | 7 | 321 | 8.0 | 12.9 | 0.00 | 0.00 | 0.00 | 68 | 1010.2 |
| 20260505101550 | 7 | 293 | 4.8 | 8.0 | 0.00 | 0.00 | 0.00 | 71 | 1010.1 |
| 20260505100046 | 7 | 290 | 3.2 | 8.0 | 0.00 | 0.00 | 0.00 | 74 | 1009.7 |
| 20260505094545 | 7 | 294 | 4.8 | 8.0 | 0.00 | 0.00 | 0.00 | 73 | 1009.7 |